x

Fairport, Mi (fptm4) Weather Station

11:40am - Sun 26th Apr 2015 All times are CDT. -5 hours from GMT.

  • Wind
    15mph, 23mph gusts
  • Air Temp 50°f
  • Sea Pressure 1017.6mb
  • Fairport, Mi
  • Fairport, Mi

More Historic Weather Station data

Upgrade to MSW Pro to gain access to the past 30 days of data for over 8000 Wavebouys and Weather Stations around the globe.

Join Pro

Comparision Forecast

View Surf forecast
   
Sun 04/26 11:40am 15 23 mph 1017.6mb 50f
11:30am 13 22 mph 1017.9mb 49f
11:20am 15 22 mph 1017.6mb 49f
11:10am 10 21 mph 1017.6mb 49f
11:00am 15 20 mph 1017.6mb 49f
10:40am 9 17 mph 1017.6mb 47f
10:30am 13 20 mph 1017.6mb 47f
10:20am 10 15 mph 1017.6mb 47f
10:10am 10 14 mph 1017.6mb 46f
10:00am 7 15 mph 1017.6mb 45f
9:40am 8 14 mph 1017.6mb 45f
9:30am 8 13 mph 1017.6mb 45f
9:20am 8 13 mph 1017.6mb 44f
9:10am 8 13 mph 1017.3mb 44f
9:00am 7 14 mph 1017.3mb 43f
8:40am 7 15 mph 1017.3mb 42f
8:30am 5 11 mph 1017.3mb 41f
8:10am 9 16 mph 1017.3mb 40f
8:00am 8 17 mph 1017.3mb 39f
7:40am 9 17 mph 1016.9mb 38f
7:30am 10 16 mph 1016.9mb 37f
7:20am 9 16 mph 1016.9mb 37f
7:10am 7 14 mph 1016.9mb 36f
7:00am 9 13 mph 1016.6mb 36f
6:40am 10 15 mph 1016.6mb 35f
6:30am 9 14 mph 1016.6mb 35f
6:20am 8 14 mph 1016.3mb 34f
6:10am 8 14 mph 1016.3mb 34f
6:00am 8 13 mph 1016.3mb 34f
5:40am 7 11 mph 1015.9mb 34f
5:30am 8 13 mph 1015.9mb 33f
5:20am 8 14 mph 1015.9mb 34f
5:10am 8 11 mph 1015.9mb 34f
5:00am 7 13 mph 1015.9mb 34f
4:40am 8 14 mph 1015.6mb 34f
4:30am 8 13 mph 1015.6mb 33f
4:20am 8 11 mph 1015.6mb 33f
4:10am 7 13 mph 1015.6mb 34f
4:00am 7 11 mph 1015.6mb 34f
3:40am 8 11 mph 1015.2mb 34f
3:30am 8 15 mph 1015.2mb 35f
3:20am 7 13 mph 1015.2mb 35f
3:10am 8 14 mph 1015.2mb 35f
2:40am 7 14 mph 1014.9mb 35f
2:30am 8 15 mph 1014.9mb 36f
2:20am 9 15 mph 1014.9mb 35f
2:10am 8 15 mph 1014.9mb 35f
2:00am 9 15 mph 1014.9mb 35f
1:40am 7 14 mph 1014.9mb 35f
1:30am 8 14 mph 1014.9mb 35f
1:20am 8 13 mph 1014.9mb 35f
1:10am 7 13 mph 1014.9mb 35f
1:00am 8 14 mph 1014.9mb 34f
12:40am 7 11 mph 1015.2mb 35f
12:30am 9 13 mph 1015.2mb 35f
12:20am 7 14 mph 1015.2mb 35f
12:10am 8 11 mph 1015.2mb 35f
12:00am 9 14 mph 1015.2mb 35f
Sat 04/25 10:40pm 7 11 mph 1014.9mb 36f
10:30pm 6 15 mph 1014.9mb 36f
10:20pm 8 14 mph 1014.9mb 37f
10:10pm 8 13 mph 1014.9mb 37f
10:00pm 10 16 mph 1014.9mb 37f
9:30pm 8 11 mph 1014.9mb 39f
9:20pm 8 13 mph 1014.9mb 39f
9:10pm 6 10 mph 1014.9mb 40f
9:00pm 5 10 mph 1014.9mb 40f
8:40pm 5 8 mph 1014.6mb 41f
8:30pm 6 13 mph 1014.6mb 42f
8:20pm 6 8 mph 1014.6mb 42f
8:10pm 5 7 mph 1014.2mb 42f
8:00pm 3 6 mph 1014.2mb 42f
7:40pm 2 6 mph 1013.9mb 43f
7:30pm 3 6 mph 1013.9mb 44f
7:20pm 5 7 mph 1013.9mb 44f
7:10pm 5 8 mph 1013.5mb 44f
7:00pm 5 9 mph 1013.5mb 45f
6:40pm 5 9 mph 1013.2mb 46f
6:30pm 6 9 mph 1013.2mb 46f
6:20pm 5 14 mph 1012.9mb 46f
6:10pm 10 14 mph 1012.9mb 46f
6:00pm 7 13 mph 1012.9mb 46f
5:40pm 6 13 mph 1012.9mb 46f
5:30pm 8 13 mph 1012.9mb 46f
5:20pm 8 11 mph 1012.9mb 46f
5:10pm 9 14 mph 1012.9mb 46f
5:00pm 10 15 mph 1012.9mb 46f
4:40pm 9 16 mph 1012.9mb 46f
4:30pm 10 14 mph 1013.2mb 46f
4:10pm 13 15 mph 1013.2mb 45f
4:00pm 10 16 mph 1013.2mb 45f
3:40pm 8 16 mph 1013.2mb 45f
3:30pm 11 18 mph 1013.5mb 45f
3:20pm 11 16 mph 1013.5mb 45f
3:10pm 13 17 mph 1013.5mb 46f
3:00pm 11 17 mph 1013.5mb 45f
2:40pm 11 20 mph 1013.5mb 45f
2:30pm 11 18 mph 1013.5mb 45f
2:20pm 14 17 mph 1013.9mb 45f
2:10pm 10 21 mph 1013.9mb 44f
2:00pm 13 21 mph 1013.9mb 44f
1:40pm 11 17 mph 1014.2mb 43f
1:30pm 13 18 mph 1014.6mb 42f
1:20pm 14 18 mph 1014.6mb 42f
1:10pm 13 18 mph 1014.6mb 42f
1:00pm 14 20 mph 1014.6mb 41f
12:40pm 14 22 mph 1014.9mb 40f
12:30pm 14 20 mph 1014.9mb 40f
12:20pm 11 22 mph 1014.9mb 40f
12:10pm 11 18 mph 1015.2mb 40f
12:00pm 10 21 mph 1015.2mb 41f
11:50am 8 16 mph 1015.6mb 40f
11:40am 11 17 mph 1015.6mb 39f
11:30am 11 17 mph 1015.6mb 39f
11:20am 11 17 mph 1015.2mb 38f
11:10am 10 20 mph 1015.2mb 38f
10:50am 10 20 mph 1015.6mb 37f
10:40am 9 15 mph 1015.6mb 37f
10:30am 9 15 mph 1015.9mb 37f
10:20am 7 13 mph 1016.3mb 37f
10:10am 8 14 mph 1015.9mb 36f
10:00am 9 16 mph 1015.9mb 36f
9:50am 8 15 mph 1016.3mb 36f
9:40am 10 13 mph 1015.9mb 36f
9:30am 9 11 mph 1015.9mb 36f
9:20am 8 13 mph 1015.9mb 35f
9:10am 9 13 mph 1015.9mb 35f
9:00am 8 13 mph 1015.9mb 36f
8:50am 8 13 mph 1016.3mb 36f
8:40am 9 15 mph 1016.3mb 35f
8:30am 9 15 mph 1015.9mb 35f
8:20am 8 11 mph 1016.3mb 36f
8:10am 6 14 mph 1016.3mb 35f
8:00am 9 11 mph 1016.3mb 35f
7:50am 10 13 mph 1016.3mb 35f
6:40am 7 13 mph 1015.6mb 33f
6:30am 6 13 mph 1015.6mb 33f
6:20am 9 14 mph 1015.6mb 33f
6:10am 8 13 mph 1015.6mb 33f
6:00am 8 14 mph 1015.6mb 33f
5:50am 7 11 mph 1015.6mb 33f
5:30am 7 13 mph 1015.6mb 32f
5:20am 7 9 mph 1015.9mb 33f
5:10am 6 10 mph 1015.9mb 33f
5:00am 7 10 mph 1015.6mb 32f
4:50am 8 13 mph 1015.9mb 33f
4:40am 8 11 mph 1015.6mb 33f
4:30am 8 13 mph 1015.6mb 33f
4:20am 7 11 mph 1015.6mb 33f
4:10am 9 13 mph 1015.2mb 33f
4:00am 8 14 mph 1015.2mb 33f
3:50am 8 13 mph 1015.2mb 33f
3:40am 8 13 mph 1015.6mb 33f
3:30am 10 13 mph 1015.2mb 34f
3:20am 6 11 mph 1015.6mb 34f
3:10am 8 13 mph 1015.6mb 34f
3:00am 7 11 mph 1015.9mb 34f
2:50am 9 14 mph 1015.9mb 35f
2:40am 7 13 mph 1015.9mb 35f
2:30am 9 13 mph 1015.9mb 35f
2:20am 8 11 mph 1015.9mb 35f
2:10am 7 10 mph 1015.9mb 35f
2:00am 6 9 mph 1015.9mb 35f
1:50am 7 9 mph 1016.3mb 35f
1:40am 6 8 mph 1016.3mb 35f
1:30am 6 8 mph 1016.3mb 35f
1:20am 6 8 mph 1016.3mb 35f
1:10am 6 8 mph 1016.6mb 35f
1:00am 6 8 mph 1016.6mb 35f
12:50am 6 8 mph 1016.9mb 35f
12:40am 6 8 mph 1016.9mb 35f
12:30am 5 7 mph 1016.9mb 35f
12:10am 6 7 mph 1016.9mb 35f
12:00am 5 7 mph 1016.9mb 35f
Fri 04/24 11:50pm 5 7 mph 1016.9mb 35f
11:40pm 3 6 mph 1016.9mb 35f
11:30pm 2 5 mph 1016.9mb 35f
11:20pm 2 5 mph 1016.9mb 35f
11:10pm 5 7 mph 1016.9mb 35f
11:00pm 5 7 mph 1016.9mb 35f
10:50pm 3 7 mph 1016.9mb 35f
10:40pm 6 9 mph 1016.9mb 35f
10:30pm 6 7 mph 1016.9mb 35f
10:20pm 5 7 mph 1016.9mb 35f
10:10pm 2 5 mph 1016.9mb 35f
10:00pm 3 6 mph 1016.9mb 35f
9:50pm 5 6 mph 1017.3mb 35f
9:40pm 5 6 mph 1016.9mb 35f
9:30pm 5 6 mph 1016.9mb 35f
9:20pm 3 5 mph 1016.9mb 35f
9:10pm 3 5 mph 1016.9mb 35f
9:00pm 2 3 mph 1016.9mb 36f
8:50pm 3 5 mph 1016.9mb 36f
8:40pm 3 6 mph 1016.9mb 37f
8:30pm 3 6 mph 1016.9mb 37f
8:20pm 5
mph
1016.9mb 37f
8:10pm 5 6 mph 1016.9mb 37f
8:00pm 5
mph
1016.9mb 37f
7:50pm 3 5 mph 1016.9mb 37f
7:40pm 5
mph
1016.9mb 37f
7:30pm 3 5 mph 1016.9mb 38f
7:20pm 2
mph
1016.9mb 37f
7:10pm 2
mph
1016.9mb 38f
6:50pm 2 6 mph 1016.9mb 37f
6:40pm 5 7 mph 1016.6mb 37f
6:30pm 6 8 mph 1016.6mb 37f
6:20pm 7 11 mph 1016.6mb 38f
6:10pm 13 14 mph 1016.9mb 37f
6:00pm 9 11 mph 1016.6mb 38f
5:50pm 9 11 mph 1016.9mb 38f
5:40pm 10 13 mph 1016.9mb 38f
5:30pm 10 13 mph 1016.9mb 38f
5:20pm 10 13 mph 1016.9mb 38f
5:10pm 11 14 mph 1017.3mb 37f
5:00pm 7 10 mph 1017.3mb 37f
4:50pm 9 11 mph 1017.3mb 37f
4:40pm 10 11 mph 1017.3mb 37f
4:30pm 10 13 mph 1017.3mb 37f
4:20pm 11 13 mph 1017.3mb 37f
4:10pm 13 15 mph 1017.6mb 36f
4:00pm 13 17 mph 1017.6mb 37f
3:50pm 13 14 mph 1017.9mb 36f
2:40pm 14 15 mph 1017.9mb 36f
2:30pm 13 15 mph 1017.9mb 35f
2:20pm 14 15 mph 1018.3mb 36f
2:10pm 14 16 mph 1018.3mb 36f
2:00pm 15 16 mph 1018.3mb 36f
1:50pm 13 15 mph 1018.6mb 36f
1:30pm 13 15 mph 1018.6mb 36f
1:20pm 14 15 mph 1018.6mb 35f
1:10pm 13 14 mph 1018.6mb 35f
1:00pm 13 14 mph 1018.6mb 35f
12:50pm 13 15 mph 1018.6mb 35f
12:40pm 13 15 mph 1019mb 35f
12:30pm 13 14 mph 1019.3mb 35f
12:20pm 11 14 mph 1019.3mb 35f
12:10pm 11 13 mph 1019.3mb 35f
12:00pm 11 13 mph 1019.6mb 35f
11:50am 10 11 mph 1019.6mb 35f
11:40am 10 11 mph 1020mb 35f
11:30am 10 11 mph 1020mb 35f
11:20am 9 11 mph 1020mb 35f
11:10am 11 13 mph 1020mb 35f
11:00am 11 13 mph 1019.6mb 35f
10:50am 11 13 mph 1019.6mb 35f
10:40am 10 13 mph 1019.6mb 35f
10:30am 11 13 mph 1019.6mb 35f
10:20am 11 13 mph 1019.6mb 35f
10:10am 10 11 mph 1019.6mb 36f
10:00am 10 11 mph 1019.6mb 36f
9:50am 9 10 mph 1020mb 36f
9:40am 9 11 mph 1019.6mb 36f
9:30am 10 11 mph 1019.6mb 36f
9:20am 9 11 mph 1019.6mb 36f
9:10am 5 9 mph 1019.6mb 37f
9:00am 7 10 mph 1019.6mb 36f
8:50am 7 10 mph 1019.6mb 37f
8:40am 8 9 mph 1019.3mb 37f
8:30am 6 8 mph 1019.3mb 37f
8:10am 5 9 mph 1019.3mb 36f
8:00am 3 6 mph 1019.6mb 36f
7:50am 3 6 mph 1019.6mb 35f
7:40am 3 6 mph 1019.6mb 34f
7:30am 3 6 mph 1019.6mb 33f
7:20am 5 8 mph 1019.3mb 32f
7:10am 6 8 mph 1019.3mb 31f
7:00am 6 8 mph 1019.3mb 30f
6:50am 6 8 mph 1019.3mb 30f
6:40am 5 8 mph 1019mb 29f
6:30am 5 8 mph 1019mb 29f
6:20am 6 8 mph 1019mb 28f
6:10am 6 9 mph 1019mb 28f
6:00am 6 9 mph 1018.6mb 28f
5:50am 7 9 mph 1018.6mb 28f
5:40am 6 9 mph 1018.6mb 28f
5:30am 6 8 mph 1018.6mb 28f
5:20am 6 8 mph 1018.3mb 28f
5:10am 5 6 mph 1018.3mb 27f
5:00am 2
mph
1018.3mb 28f
4:50am 1 2 mph 1018.3mb 27f
4:40am  -  1 mph 1018.3mb 27f
4:30am  -  1 mph 1018.3mb 27f
4:20am 1 2 mph 1018.3mb 28f
4:10am 2
mph
1017.9mb 28f
4:00am 1 2 mph 1017.9mb 27f
3:50am 1 3 mph 1017.9mb 28f
3:40am 1 2 mph 1017.9mb 29f
3:30am 1 2 mph 1017.9mb 29f
3:20am 2
mph
1017.9mb 28f
3:10am 2 3 mph 1017.9mb 28f
2:50am 2
mph
1017.9mb 31f
2:40am  -  5 mph 1017.9mb 31f
2:30am 5 7 mph 1017.9mb 35f
2:20am 6 7 mph 1017.6mb 35f
2:10am 5 7 mph 1017.6mb 35f
2:00am 6 7 mph 1017.6mb 35f
1:50am 6 8 mph 1017.6mb 35f
1:40am 7 9 mph 1017.3mb 35f
1:30am 7 8 mph 1017.3mb 35f
1:20am 7 9 mph 1017.3mb 35f
1:10am 8 10 mph 1017.3mb 35f
1:00am 5 8 mph 1017.3mb 35f
12:50am 6 7 mph 1017.3mb 34f
12:40am 3 6 mph 1017.3mb 34f
12:30am 6
mph
1017.3mb 32f
12:20am 2 3 mph 1017.3mb 30f
12:10am 3
mph
1017.3mb 29f
12:00am 1 3 mph 1017.3mb 30f
Thu 04/23 11:50pm 2 3 mph 1017.3mb 30f
10:40pm 2 3 mph 1017.3mb 30f
10:30pm 2
mph
1016.9mb 29f
10:20pm 2
mph
1016.9mb 29f
10:10pm 2
mph
1016.9mb 29f
10:00pm 2 3 mph 1016.9mb 29f
9:50pm 3 5 mph 1016.9mb 30f
9:30pm 3 5 mph 1016.9mb 30f
9:20pm 2 5 mph 1016.9mb 31f
9:10pm 3 6 mph 1016.9mb 31f
9:00pm 3 5 mph 1016.9mb 30f
8:50pm 3 5 mph 1016.9mb 30f
8:40pm 5
mph
1016.6mb 31f
8:30pm 3 6 mph 1016.3mb 31f
8:20pm 3 6 mph 1016.3mb 31f
8:10pm  -  3 mph 1015.9mb 32f
8:00pm  -  3 mph 1015.9mb 34f
7:50pm  -  5 mph 1015.9mb 35f
7:40pm 5 8 mph 1015.9mb 36f
7:30pm 7 9 mph 1015.9mb 36f
7:20pm 7 9 mph 1015.6mb 36f
7:10pm 8 10 mph 1015.2mb 35f
7:00pm 9 10 mph 1015.2mb 35f
6:50pm 8 11 mph 1015.2mb 36f
6:40pm 10 11 mph 1015.2mb 35f
6:30pm 10 11 mph 1015.2mb 35f
6:20pm 10 13 mph 1015.2mb 35f
6:10pm 11 14 mph 1015.2mb 35f
6:00pm 11 14 mph 1015.2mb 35f
5:50pm 11 14 mph 1015.2mb 35f
5:40pm 11 14 mph 1015.2mb 35f
5:30pm 13 14 mph 1014.9mb 35f
5:20pm 11 13 mph 1014.9mb 35f
5:10pm 13 15 mph 1014.9mb 35f
5:00pm 13 15 mph 1014.9mb 35f
4:50pm 11 15 mph 1014.9mb 35f
4:40pm 14 16 mph 1014.6mb 35f
4:30pm 14 16 mph 1014.6mb 35f
4:10pm 11 15 mph 1014.6mb 35f
4:00pm 13 16 mph 1014.2mb 36f
3:50pm 10 11 mph 1014.6mb 37f
3:40pm 8 11 mph 1014.2mb 36f
3:30pm 9 13 mph 1014.2mb 36f
3:20pm 13 14 mph 1014.2mb 36f
3:10pm 9 14 mph 1014.2mb 36f
3:00pm 10 13 mph 1014.2mb 36f
2:50pm 11 14 mph 1014.2mb 36f
2:40pm 11 14 mph 1014.2mb 36f
2:30pm 11 13 mph 1014.2mb 35f
2:20pm 10 11 mph 1014.2mb 35f
2:10pm 10 11 mph 1014.2mb 35f
2:00pm 11 14 mph 1014.6mb 35f
1:50pm 13 15 mph 1014.2mb 35f
1:40pm 13 14 mph 1014.2mb 36f
1:30pm 9 10 mph 1014.6mb 38f
1:20pm 11 13 mph 1014.6mb 38f
1:10pm 15 17 mph 1014.2mb 37f
1:00pm 10 14 mph 1014.6mb 36f
12:50pm 11 17 mph 1014.6mb 37f
12:40pm 10 18 mph 1014.6mb 36f
12:30pm 13 16 mph 1014.6mb 36f
12:20pm 8 13 mph 1014.6mb 35f
12:10pm 9 14 mph 1014.6mb 35f
12:00pm 13 17 mph 1014.6mb 34f
11:50am 9 16 mph 1014.6mb 35f
11:40am 15 22 mph 1014.6mb 34f
11:30am 11 22 mph 1014.6mb 34f
11:20am 13 16 mph 1014.6mb 34f
11:10am 9 15 mph 1014.6mb 33f
10:50am 11 21 mph 1014.6mb 33f
10:40am 10 18 mph 1014.6mb 32f
10:30am 9 16 mph 1014.2mb 32f
10:20am 13 22 mph 1014.2mb 32f
10:10am 15 21 mph 1014.2mb 32f
10:00am 13 20 mph 1014.2mb 32f
9:50am 15 20 mph 1014.2mb 31f
9:40am 13 18 mph 1013.9mb 31f
9:30am 13 16 mph 1013.9mb 31f
9:20am 9 18 mph 1013.9mb 31f
9:10am 14 17 mph 1013.9mb 31f
9:00am 11 16 mph 1013.9mb 30f
8:50am 13 16 mph 1013.9mb 30f
8:40am 10 18 mph 1013.9mb 30f
8:30am 13 17 mph 1013.9mb 30f
8:20am 10 16 mph 1013.5mb 29f
8:10am 10 18 mph 1013.5mb 29f
8:00am 11 16 mph 1013.5mb 29f
7:50am 11 18 mph 1013.5mb 29f
6:40am 9 15 mph 1012.9mb 29f
6:30am 7 15 mph 1012.5mb 29f
6:20am 8 16 mph 1012.5mb 29f
6:10am 9 15 mph 1012.5mb 29f
6:00am 11 15 mph 1012.2mb 29f
5:50am 8 16 mph 1012.2mb 29f
5:30am 9 18 mph 1011.9mb 29f
5:20am 9 15 mph 1011.5mb 29f
5:10am 10 14 mph 1011.9mb 29f
5:00am 6 13 mph 1011.5mb 28f
4:50am 6 10 mph 1011.5mb 28f
4:40am 7 10 mph 1011.5mb 28f
4:30am 6 10 mph 1011.5mb 28f
4:20am 8 11 mph 1011.5mb 28f
4:10am 6 9 mph 1011.5mb 28f
4:00am 6 14 mph 1011.5mb 28f
3:50am 7 13 mph 1011.2mb 28f
3:40am 7 15 mph 1011.2mb 28f
3:30am 13 18 mph 1011.2mb 28f
3:20am 9 17 mph 1011.2mb 28f
3:10am 11 16 mph 1010.8mb 28f
3:00am 9 16 mph 1010.8mb 28f
2:50am 11 18 mph 1010.8mb 28f
2:40am 9 14 mph 1010.5mb 28f
2:30am 7 14 mph 1010.5mb 28f
2:20am 8 14 mph 1010.5mb 28f
2:10am 11 16 mph 1010.5mb 28f
2:00am 8 13 mph 1010.5mb 28f
1:50am 6 14 mph 1010.8mb 28f
1:40am 8 17 mph 1010.5mb 28f
1:30am 5 13 mph 1010.5mb 28f
1:20am 7 14 mph 1010.5mb 27f
1:10am 7 16 mph 1010.5mb 27f
1:00am 10 17 mph 1010.5mb 27f
12:50am 11 16 mph 1010.8mb 28f
12:40am 10 18 mph 1010.5mb 28f
12:30am 11 17 mph 1010.5mb 28f
12:10am 10 17 mph 1010.5mb 28f
12:00am 9 14 mph 1010.5mb 28f
Wed 04/22 11:50pm 11 18 mph 1010.5mb 28f
11:40pm 7 13 mph 1010.5mb 28f
11:30pm 7 14 mph 1010.5mb 28f
11:20pm 10 14 mph 1010.2mb 27f
11:10pm 8 14 mph 1010.5mb 27f
11:00pm 6 15 mph 1010.2mb 27f
10:50pm 10 18 mph 1010.5mb 27f
10:40pm 9 11 mph 1010.2mb 27f
10:30pm 6 14 mph 1010.2mb 27f
10:20pm 8 13 mph 1010.2mb 27f
10:10pm 7 13 mph 1010.5mb 27f
10:00pm 8 13 mph 1010.2mb 27f
9:50pm 8 15 mph 1010.2mb 27f
9:40pm 8 13 mph 1010.2mb 27f
9:30pm 8 11 mph 1009.8mb 27f
9:20pm 8 14 mph 1009.8mb 28f
9:10pm 6 11 mph 1010.2mb 28f
9:00pm 8 13 mph 1010.2mb 27f
8:50pm 8 13 mph 1009.8mb 27f
8:40pm 8 13 mph 1009.8mb 27f
8:30pm 8 14 mph 1009.8mb 28f
8:20pm 9 15 mph 1009.5mb 28f
8:10pm 7 13 mph 1009.8mb 28f
8:00pm 6 13 mph 1009.5mb 28f
7:50pm 7 14 mph 1009.5mb 28f
7:40pm 8 16 mph 1009.1mb 28f
7:30pm 7 13 mph 1009.1mb 28f
7:20pm 8 13 mph 1008.8mb 28f
7:10pm 7 10 mph 1008.8mb 28f
6:50pm 6 9 mph 1009.1mb 28f
6:40pm 6 10 mph 1008.8mb 29f
6:30pm 8 13 mph 1008.8mb 29f
6:20pm 7 13 mph 1008.8mb 29f
6:10pm 10 15 mph 1008.5mb 29f
6:00pm 7 10 mph 1008.5mb 29f
5:50pm 5 11 mph 1008.5mb 29f